sat.trackr.live / text

‹ back to catalog

HELLAS-SAT 2

NORAD 27811 · 2003-020A

PAYLOAD ACTIVE UNKNOWN

§ Identity

Operator
Country
GREC
Launch date
2003-05-13
Launch site
AFETR
Launch vehicle
Mass (kg)
RCS (m²)
15.85

Purposes: comms

External: N2YO · Heavens-Above · Gunter

§ Orbital elements

Epoch: 2026-05-25T01:58:40.152288Z

Period
1,436.10 min
Inclination
7.3001°
Eccentricity
0.0003048
Mean motion
1.00271749 rev/d
Perigee alt
35,773.8 km
Apogee alt
35,799.5 km
Semi-major
42,164.7 km
B*
0.0000e+0
RAAN
68.1578°
Arg perigee
335.6025°
Mean anomaly
218.5727°
Rev number
4,261

§ Raw data

HELLAS-SAT 21 27811U 03020A   26145.08240917 -.00000086  00000+0  00000+0 0  99962 27811   7.3001  68.1578 0003048 335.6025 218.5727  1.00271749 42612

JSON: /api/v1/satellites/27811 · /tle

For live sub-satellite position, see the globe view (requires WebGL).

§ Visibility from observer

Set your observer location to see the next 7 days of passes ≥ 10°. The values pass through the URL so the page stays shareable.

No JS? Fill the form by hand. The geolocation button needs JavaScript.